Location: Ago
(8.4667°N, 4.4833°E)
Time: 23:46:26
(UTC+00:00)

Cosmos 1844 Rocket - Pass Details

Date: 18 September 2020
Orbit: 823 x 846 km, 71.0° (Epoch: 20 October)

Event Time Altitude Azimuth Distance (km) Brightness Sun altitude
Rises 19:28:15 0° 216° (SW) 3,351 6.2 -27.5°
Reaches altitude 10° 19:30:55 10° 226° (SW) 2,416 5.5 -28.2°
Maximum altitude 19:35:45 31° 287° (WNW) 1,407 4.4 -29.3°
Drops below altitude 10° 19:40:35 10° 348° (NNW) 2,414 5.2 -30.5°
Sets 19:43:17 0° 359° (N) 3,348 5.9 -31.2°
